SK0QO-13 Galo SE current weather conditions

sailwx.info

Wind from 150

Air temperature 6.7° C
Dewpoint 1.6° C

Last reported at 2019-Dec-06 07:07 UTC.
Time now 2019-Dec-06 08:04 UTC

Location: N 59°06' E 018°15'.
View on Google Maps.

See reports from other nearby stations

  
Tides and Currents Weather Stations Pressure Air Temp Water Temp Dewpoint Dewpoint Depression Visibility Wind Speed Wind Dir Waves Ship Positions
date/time (UTC)wind fromknots sea level pressurealtimeterstation pressurevisibilityair tempwater tempwave heightnotes
2019-Dec-06 07:07 150 6.7
2019-Dec-06 06:57 112 6.7
2019-Dec-06 06:47 202 6.7
2019-Dec-06 06:37 229 6.7
2019-Dec-06 06:27 211 6.7
2019-Dec-06 06:07 229 6.7
2019-Dec-06 05:57 180 6.7
2019-Dec-06 05:47 243 6.7
2019-Dec-06 05:37 225 6.7
2019-Dec-06 05:27 225 6.7
2019-Dec-06 05:17 202 6.7
2019-Dec-06 05:07 180 6.7
2019-Dec-06 04:57 225 6.7
2019-Dec-06 04:47 225 6.7
2019-Dec-06 04:37 189 6.1
2019-Dec-06 04:27 279 6.7
2019-Dec-06 04:07 220 6.7
2019-Dec-06 03:57 236 6.7
2019-Dec-06 03:47 184 6.7
2019-Dec-06 03:37 157 6.7
2019-Dec-06 03:27 180 6.7
2019-Dec-06 03:17 265 6.7
2019-Dec-06 03:07 171 6.7
2019-Dec-06 02:57 085 6.7
2019-Dec-06 02:47 186 6.7
2019-Dec-06 02:37 101 6.7
2019-Dec-06 02:27 225 6.7
2019-Dec-06 02:07 225 6.7
2019-Dec-06 01:57 180 6.7
2019-Dec-06 01:47 180 6.7
2019-Dec-06 01:37 225 6.7
2019-Dec-06 01:27 225 6.7
2019-Dec-06 01:17 225 6.7
2019-Dec-06 01:07 234 6.7
2019-Dec-06 00:57 256 6.7
2019-Dec-06 00:47 211 7.2
2019-Dec-06 00:37 270 7.2
2019-Dec-06 00:27 180 7.2
2019-Dec-06 00:17 270 7.2
2019-Dec-06 00:07 180 7.2
2019-Dec-05 23:57 180 7.2
2019-Dec-05 23:47 185 7.2
2019-Dec-05 23:37 238 7.2
2019-Dec-05 23:27 180 7.2
2019-Dec-05 23:17 270 7.8
2019-Dec-05 23:07 090 7.8
2019-Dec-05 22:57 225 7.8
2019-Dec-05 22:47 145 7.8
2019-Dec-05 22:37 290 7.8
2019-Dec-05 22:27 180 7.8
2019-Dec-05 22:07 184 7.2
2019-Dec-05 21:57 229 7.2
2019-Dec-05 21:47 243 7.2
2019-Dec-05 21:37 270 7.2
2019-Dec-05 21:27 180 7.2
2019-Dec-05 21:07 255 7.2
2019-Dec-05 20:57 191 7.2
2019-Dec-05 20:47 225 7.2
2019-Dec-05 20:37 202 7.2
2019-Dec-05 20:27 247 7.2
2019-Dec-05 20:07 237 7.2
2019-Dec-05 19:57 103 7.2
2019-Dec-05 19:47 175 7.2
2019-Dec-05 19:37 170 7.2
2019-Dec-05 19:27 146 7.2
2019-Dec-05 19:17 225 7.2
2019-Dec-05 19:07 184 7.2
2019-Dec-05 18:57 225 7.2
2019-Dec-05 18:47 187 7.2
2019-Dec-05 18:37 198 7.2
2019-Dec-05 18:27 238 7.2
2019-Dec-05 18:07 171 7.2
2019-Dec-05 17:57 166 7.2
2019-Dec-05 17:47 220 7.2
2019-Dec-05 17:37 205 7.2
2019-Dec-05 17:27 092 7.2
2019-Dec-05 17:07 112 7.2
2019-Dec-05 16:57 300 7.2
2019-Dec-05 16:47 225 7.2
2019-Dec-05 16:37 225 7.2
2019-Dec-05 16:27 090 7.2
2019-Dec-05 16:07 211 7.2
2019-Dec-05 15:57 099 7.2
2019-Dec-05 15:47 270 7.2
2019-Dec-05 15:37 142 7.2
2019-Dec-05 15:27 315 7.2
2019-Dec-05 15:07 200 7.2
2019-Dec-05 14:57 202 7.2
2019-Dec-05 14:47 195 7.2
2019-Dec-05 14:37 144 7.2
2019-Dec-05 14:27 279 7.2
2019-Dec-05 14:17 207 7.2
2019-Dec-05 14:07 165 7.2
2019-Dec-05 13:57 180 7.8
2019-Dec-05 13:47 168 7.8
2019-Dec-05 13:37 125 7.8
2019-Dec-05 13:06 030 7.8
2019-Dec-05 12:56 270 7.8
2019-Dec-05 12:46 351 7.8
2019-Dec-05 12:36 270 7.8
2019-Dec-05 12:26 036 7.8
2019-Dec-05 12:06 130 7.8
2019-Dec-05 11:56 238 7.8
2019-Dec-05 11:46 202 7.8
2019-Dec-05 11:36 184 7.8
2019-Dec-05 11:26 270 7.8
2019-Dec-05 11:06 240 7.8
2019-Dec-05 10:56 077 7.8
2019-Dec-05 10:46 198 7.8
2019-Dec-05 10:36 225 7.8
2019-Dec-05 10:26 162 7.8
2019-Dec-05 10:06 170 7.8
2019-Dec-05 09:56 207 7.8
2019-Dec-05 09:46 103 7.8
2019-Dec-05 09:36 252 7.8
2019-Dec-05 09:26 208 7.2
2019-Dec-05 09:16 230 7.2
2019-Dec-05 09:06 195 6.7
2019-Dec-05 08:56 139 6.7
2019-Dec-05 08:36 225 6.7
2019-Dec-05 08:26 130 6.7
2019-Dec-05 08:16 180 6.7
2019-Dec-05 08:06 190 6.7
2019-Dec-05 07:56 202 6.7
2019-Dec-05 07:46 210 6.7
2019-Dec-05 07:36 225 6.1
2019-Dec-05 07:26 195 6.1
2019-Dec-05 06:56 220 6.1
2019-Dec-05 06:46 243 6.1
2019-Dec-05 06:36 260 6.1
2019-Dec-05 06:26 270 6.1
2019-Dec-05 06:16 234 6.1
2019-Dec-05 06:06 193 6.1
2019-Dec-05 05:56 190 6.1
2019-Dec-05 05:46 270 6.1
2019-Dec-05 05:36 180 5.6
2019-Dec-05 05:26 207 5.6
2019-Dec-05 05:06 236 5.6
2019-Dec-05 04:56 137 5.6
2019-Dec-05 04:46 258 5.6
2019-Dec-05 04:36 238 5.0
2019-Dec-05 04:26 225 5.0
2019-Dec-05 04:16 146 5.0
2019-Dec-05 04:06 225 5.0
2019-Dec-05 03:56 225 4.4
2019-Dec-05 03:46 186 4.4
2019-Dec-05 03:36 146 4.4
2019-Dec-05 03:26 050 4.4
2019-Dec-05 03:16 270 4.4
2019-Dec-05 03:06 270 4.4
2019-Dec-05 02:56 184 4.4
2019-Dec-05 02:36 171 4.4
2019-Dec-05 02:26 270 4.4
2019-Dec-05 02:16 212 4.4
2019-Dec-05 02:06 225 4.4
2019-Dec-05 01:56 090 5.0
2019-Dec-05 01:46 5.0
2019-Dec-05 01:36 135 5.0
2019-Dec-05 01:26 108 4.4
2019-Dec-05 01:06 270 4.4
2019-Dec-05 00:56 4.4
2019-Dec-05 00:46 261 4.4
2019-Dec-05 00:36 297 4.4
2019-Dec-05 00:26 229 4.4
2019-Dec-05 00:16 150 4.4
2019-Dec-05 00:06 225 4.4
2019-Dec-04 23:56 270 4.4
2019-Dec-04 23:46 148 4.4
2019-Dec-04 23:36 160 4.4
2019-Dec-04 23:26 225 5.0
2019-Dec-04 23:06 270 5.0
2019-Dec-04 22:56 180 5.0
2019-Dec-04 22:46 045 5.0
2019-Dec-04 22:36 180 5.0
2019-Dec-04 22:26 247 5.0
2019-Dec-04 22:16 270 5.0
2019-Dec-04 22:06 144 5.0
2019-Dec-04 21:56 101 5.6
2019-Dec-04 21:46 279 5.6
2019-Dec-04 21:36 5.6
2019-Dec-04 21:26 225 5.6
2019-Dec-04 21:06 045 5.6
2019-Dec-04 20:56 270 5.6
2019-Dec-04 20:46 270 5.6
2019-Dec-04 20:36 270 5.6
2019-Dec-04 20:26 031 5.6
2019-Dec-04 20:06 315 6.1
2019-Dec-04 19:56 225 6.1
2019-Dec-04 19:46 063 6.1
2019-Dec-04 19:36 072 6.1
2019-Dec-04 19:16 288 6.1
2019-Dec-04 19:06 330 6.1
2019-Dec-04 18:56 225 6.1
2019-Dec-04 18:36 297 6.1
2019-Dec-04 18:26 225 6.1
2019-Dec-04 18:16 270 5.6
2019-Dec-04 18:06 180 5.6
2019-Dec-04 17:46 004 5.6
2019-Dec-04 17:36 090 5.6
2019-Dec-04 17:26 5.6
2019-Dec-04 17:16 351 5.6
2019-Dec-04 17:06 270 5.6
2019-Dec-04 16:56 270 5.6
2019-Dec-04 16:46 135 5.6
2019-Dec-04 16:36 270 5.6
2019-Dec-04 16:26 270 5.6
2019-Dec-04 16:16 045 5.6
2019-Dec-04 16:06 5.6
2019-Dec-04 15:56 5.6
2019-Dec-04 15:46 270 5.6
2019-Dec-04 15:36 5.6
2019-Dec-04 15:26 225 5.0
2019-Dec-04 15:06 306 5.0
2019-Dec-04 14:56 5.0
2019-Dec-04 14:46 270 5.0
2019-Dec-04 14:36 013 5.0
2019-Dec-04 14:26 5.0
2019-Dec-04 14:06 5.0
2019-Dec-04 13:56 288 4.4
2019-Dec-04 13:46 306 4.4
2019-Dec-04 13:36 279 4.4
2019-Dec-04 13:26 270 4.4
2019-Dec-04 13:06 265 4.4
2019-Dec-04 12:56 092 4.4
2019-Dec-04 12:46 310 4.4
2019-Dec-04 12:36 009 4.4
2019-Dec-04 12:26 225 4.4
2019-Dec-04 12:06 270 4.4
2019-Dec-04 11:56 279 4.4
2019-Dec-04 11:46 270 4.4
2019-Dec-04 11:36 256 5.0
2019-Dec-04 11:26 288 5.0
2019-Dec-04 11:06 342 5.0
2019-Dec-04 10:56 5.0
2019-Dec-04 10:46 315 5.0
2019-Dec-04 10:36 036 4.4
2019-Dec-04 10:26 261 4.4
2019-Dec-04 10:16 288 4.4
2019-Dec-04 10:06 140 4.4
2019-Dec-04 09:55 270 4.4
2019-Dec-04 09:45 279 4.4
2019-Dec-04 09:35 270 4.4
2019-Dec-04 09:25 270 4.4
2019-Dec-04 09:15 270 3.9
2019-Dec-04 09:05 157 3.9
2019-Dec-04 08:55 270 3.9
2019-Dec-04 08:45 3.9
2019-Dec-04 08:35 153 3.9
2019-Dec-04 08:25 229 3.3
2019-Dec-04 08:05 184 3.3